This demonstration page uses our WeatherBlox Daily Observations layout. Learn more.

Left ArrowRight Arrow

Hourly Observations for July 17, 2020

Temp ( °F °C ) Dew Point ( °F °C ) Humidity (%) Winds ( mph kmh ) Pressure ( in mb ) Visibility ( mi km ) Precip ( " mm )
12:53 am 00:53 Clear 75 23.9 70 21.1 84 84 SSE 9 15 29.98 1015 10 16 0.00 0.00
1:53 am 01:53 Clear 73 22.8 70 21.1 90 90 SE 9 15 29.96 1015 10 16 0.00 0.00
2:53 am 02:53 Clear 73 22.8 68 20 84 84 S 8 13 29.94 1014 10 16 0.00 0.00
3:53 am 03:53 Clear 71 21.7 67 19.4 87 87 S 6 9 29.96 1015 10 16 0.00 0.00
4:53 am 04:53 Clear 71 21.7 67 19.4 87 87 SSE 5 7 29.96 1015 10 16 0.00 0.00
5:53 am 05:53 Clear 71 21.7 68 20 90 90 SSE 8 13 29.98 1015 10 16 0.00 0.00
6:53 am 06:53 Sunny 72 22.2 68 20 87 87 SSE 9 15 29.96 1015 10 16 0.00 0.00
7:53 am 07:53 Mostly Sunny 74 23.3 70 21.1 88 88 S 9 15 29.95 1014 10 16 0.00 0.00
8:22 am 08:22 Mostly Cloudy 75 23.9 71 21.7 88 88 SSE 7 11 29.92 1013 10 16 0.00 0.00
8:53 am 08:53 Cloudy 76 24.4 72 22.2 88 88 SE 9 15 29.94 1014 10 16 0.00 0.00
9:53 am 09:53 Partly Cloudy 81 27.2 73 22.8 77 77 SSE 7 11 29.94 1014 10 16 0.00 0.00
10:53 am 10:53 Sunny 86 30 72 22.2 63 63 S 8 13 29.93 1014 10 16 0.00 0.00
11:53 am 11:53 Sunny 89 31.7 72 22.2 57 57 S 12 19 29.93 1014 10 16 0.00 0.00
12:53 pm 12:53 Sunny 90 32.2 72 22.2 56 56 S 12 19 29.93 1013 9 14 0.00 0.00
1:53 pm 13:53 Sunny 91 32.8 69 20.6 49 49 S 13 20 29.91 1013 10 16 0.00 0.00
2:53 pm 14:53 Sunny 94 34.4 69 20.6 44 44 SSW 12 19 29.89 1012 10 16 0.00 0.00
3:53 pm 15:53 Sunny 94 34.4 68 20 43 43 S 12 19 29.87 1012 10 16 0.00 0.00
4:53 pm 16:53 Sunny 93 33.9 69 20.6 46 46 S 15 24 29.85 1011 10 16 0.00 0.00
5:53 pm 17:53 Sunny 91 32.8 71 21.7 52 52 SSE 16 26 29.84 1011 10 16 0.00 0.00
6:53 pm 18:53 Sunny 89 31.7 73 22.8 59 59 SSE 14 22 29.84 1011 10 16 0.00 0.00
7:53 pm 19:53 Sunny 87 30.6 74 23.3 65 65 SSE 13 20 29.83 1010 10 16 0.00 0.00
8:53 pm 20:53 Sunny 85 29.4 74 23.3 70 70 SSE 10 17 29.83 1010 10 16 0.00 0.00
9:53 pm 21:53 Clear 83 28.3 73 22.8 72 72 SSE 10 17 29.83 1010 10 16 0.00 0.00
10:53 pm 22:53 Clear 82 27.8 73 22.8 74 74 S 12 19 29.82 1010 10 16 0.00 0.00
11:53 pm 23:53 Clear 82 27.8 72 22.2 72 72 S 10 17 29.80 1009 10 16 0.00 0.00

Powered by AerisWeather